Regional Weather Roundup
Issued by NWS

Home | Current Version | Previous Version | Graphics & Text | Print | Product List | Glossary On
Versions: 1 2 3 4 5 6 7 8 9 10 11 12 13 14 15 16 17 18 19 20 21 22 23 24 25 26 27 28 29 30 31 32 33 34 35 36 37 38 39 40 41 42 43 44 45 46 47 48 49 50
000
ASUS43 KOAX 240102
RWRNE

WEATHER ROUNDUP FOR NEBRASKA
NATIONAL WEATHER SERVICE OMAHA NE
700 PM CST THU NOV 23 2017

NOTES: SATELLITE DATA IS BEING USED TO AUGMENT CLOUD COVER ABOVE
       12000 FEET.
       "FAIR" INDICATES FEW OR NO CLOUDS BELOW 12,000 FEET WITH NO
       SIGNIFICANT WEATHER AND/OR OBSTRUCTIONS TO VISIBILITY.


NEZ001>004-019>022-054>056-240200-
NEBRASKA PANHANDLE

CITY           SKY/WX    TMP DP  RH WIND       PRES   REMARKS
SCOTTSBLUFF    CLEAR     49  34  56 N3        29.88R
ALLIANCE       CLEAR     46  35  65 W8        29.84F
CHADRON        CLOUDY    55  35  47 W10       29.78F
GORDON         FAIR      57  35  42 W8        29.78S
KIMBALL        CLOUDY    49  30  47 SE3       29.94F
SIDNEY         CLOUDY    51  31  46 NW12      29.92R
$$

NEZ057>060-069>072-079>082-240200-
SOUTHWEST NEBRASKA

CITY           SKY/WX    TMP DP  RH WIND       PRES   REMARKS
NORTH PLATTE   PTCLDY    49  38  65 E3        29.83F
IMPERIAL       CLOUDY    55  34  45 SW8       29.87F
LEXINGTON      CLEAR     57  42  56 S10       29.83F
MCCOOK         CLOUDY    60  40  47 SW5       29.86F
OGALLALA       CLEAR     46  34  62 W5        29.85F
$$

NEZ005>010-023>029-035>040-094-240200-
NORTH CENTRAL NEBRASKA

CITY           SKY/WX    TMP DP  RH WIND       PRES   REMARKS
VALENTINE      PTCLDY    54  38  54 SW10      29.73F
AINSWORTH      CLEAR     57  40  52 SW8       29.75F
BROKEN BOW     PTCLDY    55  41  59 SW6       29.81F
O`NEILL        CLOUDY    60  43  54 SW8       29.75F
ORD            CLOUDY    53  41  63 SW6       29.78F
THEDFORD       MOCLDY    57  39  51 S8        29.79F
$$

NEZ041-046>049-061>064-073>077-083>087-240200-
SOUTH CENTRAL NEBRASKA

CITY           SKY/WX    TMP DP  RH WIND       PRES   REMARKS
GRAND ISLAND   CLOUDY    59  41  51 S10       29.83F
AURORA         CLOUDY    57  39  51 SW8       29.83F
HASTINGS       PTCLDY    58  39  49 S7        29.84F
HEBRON         CLOUDY    58  40  51 S9        29.85F
HOLDREGE       CLOUDY    54  41  62 S7        29.85F
KEARNEY        MOCLDY    58  41  53 S12       29.84F
YORK           PTCLDY    57  39  51 S9        29.84F
$$

NEZ011>018-030>034-042>045-240200-
NORTHEAST NEBRASKA

CITY           SKY/WX    TMP DP  RH WIND       PRES   REMARKS
NORFOLK        CLOUDY    59  41  51 S14       29.76F
ALBION         CLOUDY    60  42  51 CALM      29.79F
BLAIR          CLOUDY    55  39  54 S12       29.82F
COLUMBUS       CLOUDY    61  41  47 S10       29.80F
FREMONT        CLOUDY    56  39  53 SE6       29.82F
TEKAMAH        MOCLDY    45  32  60 S6        29.81F
WAYNE          PTCLDY    55  38  54 SW5       29.77F
$$

NEZ050>053-065>068-078-088>093-240200-
SOUTHEAST NEBRASKA

CITY           SKY/WX    TMP DP  RH WIND       PRES   REMARKS
LINCOLN        CLOUDY    52  40  63 S8        29.85F
OMAHA EPPLEY   CLOUDY    49  37  63 SE9       29.84F
BEATRICE       CLOUDY    58  40  52 S9        29.86F
FALLS CITY     CLEAR     55  38  52 S7        29.89S
NEBRASKA CITY  CLEAR     52  39  60 S9        29.87F
PLATTSMOUTH    CLOUDY    56  39  53 S10       29.85F
$$

NEZ044-045-051>053-067-240200-
OMAHA AREA

CITY           SKY/WX    TMP DP  RH WIND       PRES   REMARKS
OMAHA EPPLEY   CLOUDY    49  37  63 SE9       29.84F
BLAIR          CLOUDY    55  39  54 S12       29.82F
FREMONT        CLOUDY    56  39  53 SE6       29.82F
MILLARD        CLOUDY    54  39  57 SE5       29.84S
OFFUTT AFB     CLOUDY    49  36  62 SE5       29.84F
PLATTSMOUTH    CLOUDY    56  39  53 S10       29.85F
WAHOO          FAIR      53  39  59 S9        29.82F
$$




USA.gov is the U.S. government's official web portal to all federal, state and local government web resources and services.